Theta_e
331 330 331 332 329 326 328 327 323 326 331 329 321 319 322 320 318 320 321 322 326 329 331 334 335 335 335 336 336 337 337 338 341 346 351 351 347 347 349 349 347 345 347 352 353 351 350 350 347 347 349 345 337 330 329 333 339 340 339 339 338 338 337
331 331 331 331 331 330 327 323 325 330 331 329 325 320 320 320 318 320 320 320 322 323 325 332 336 334 333 335 336 336 338 340 343 346 350 351 350 348 349 351 348 344 345 350 353 351 350 347 342 344 349 345 336 331 332 336 339 341 341 340 340 339 338
330 332 330 328 330 332 329 327 330 329 323 322 323 320 320 321 319 320 320 320 321 320 324 332 335 334 334 334 335 336 336 339 344 346 346 349 349 346 348 352 351 346 345 350 353 350 348 344 338 342 349 346 338 336 338 340 341 341 342 342 341 339 338
330 330 328 324 325 329 330 330 332 329 325 323 323 322 321 320 319 319 319 319 320 323 329 333 334 335 335 333 335 336 335 335 341 345 346 348 349 348 348 349 351 350 348 351 353 348 345 341 339 344 348 344 340 341 341 341 341 342 341 341 340 338 337
328 326 327 325 325 327 326 325 326 326 326 326 325 324 323 321 319 318 319 318 319 328 334 334 334 334 332 333 334 336 336 335 336 340 345 349 351 352 351 349 351 353 351 351 352 349 343 341 343 345 345 342 341 342 342 341 341 341 341 341 340 338 337
323 325 330 329 329 329 328 326 324 325 326 324 322 321 322 322 320 318 319 318 320 330 336 334 333 333 333 334 334 335 336 335 334 337 342 349 352 352 352 353 354 353 351 349 349 347 343 343 345 344 343 343 341 342 343 341 340 340 341 341 341 339 337
326 329 331 329 329 331 331 329 328 329 328 324 319 318 320 321 321 321 320 318 322 332 335 333 334 334 334 334 334 336 336 335 337 338 340 348 353 354 354 353 351 350 349 347 345 344 343 345 347 345 344 344 342 342 343 341 339 340 339 339 340 340 338
330 330 331 331 330 331 329 330 331 330 329 327 325 324 325 323 321 321 321 318 323 335 337 335 336 335 334 335 335 336 336 336 338 340 340 347 354 356 356 352 350 348 347 344 342 342 344 347 348 347 345 344 342 341 342 340 339 338 336 335 336 339 339
324 325 327 327 328 329 328 329 331 331 330 331 329 328 328 324 321 323 321 318 324 337 341 337 336 335 335 335 335 335 336 336 337 340 344 349 355 358 356 352 349 347 346 344 342 344 345 347 349 348 345 344 342 340 340 339 338 338 337 335 335 337 338
318 320 321 322 324 327 328 329 331 331 331 329 328 325 323 322 323 324 322 320 326 338 340 336 335 336 335 336 335 334 335 335 336 340 345 351 357 360 357 353 349 346 346 345 345 346 347 349 350 348 344 343 342 341 340 337 338 338 338 337 336 337 336
321 322 325 329 329 326 324 326 328 329 330 330 329 324 320 322 323 322 324 325 327 333 337 336 335 335 335 336 335 334 336 336 336 339 345 350 357 360 359 354 349 349 349 347 347 348 348 350 350 347 345 343 342 341 339 337 337 337 337 337 337 337 335
327 328 331 332 330 327 325 325 326 327 330 330 328 323 324 328 323 319 328 333 327 329 335 335 335 335 336 336 336 335 335 335 335 339 346 348 351 358 362 356 352 353 352 350 351 351 351 352 349 347 347 344 341 342 340 336 336 336 337 337 338 337 335
329 331 330 330 331 329 328 328 327 328 328 328 327 326 329 332 325 322 333 337 330 332 335 333 334 335 335 335 335 335 335 335 335 337 345 348 347 354 362 359 356 356 355 354 355 355 355 353 349 350 348 344 344 343 338 335 336 337 338 339 339 338 336
329 330 330 330 330 329 328 329 329 330 330 329 329 329 330 332 329 329 337 337 334 334 335 335 334 334 335 335 335 334 333 333 334 333 340 347 347 350 357 361 360 359 358 359 359 358 356 351 349 351 347 345 345 340 334 335 337 338 338 339 337 334 335
324 329 330 328 330 329 327 328 330 330 330 330 330 331 330 331 331 331 333 333 334 335 335 335 334 335 336 336 334 334 333 332 333 332 334 341 346 347 352 360 362 361 361 363 361 359 354 349 350 349 346 346 344 337 333 336 339 337 338 339 335 329 332
322 328 329 328 329 329 325 325 328 328 328 328 329 331 331 330 330 331 331 329 331 334 334 335 335 336 337 336 334 334 333 333 333 333 335 340 343 346 350 357 361 362 363 364 363 359 352 350 350 348 346 346 341 335 334 337 338 338 339 339 335 331 334
322 327 329 328 327 324 321 324 328 329 329 329 329 331 332 333 332 330 329 329 333 335 334 334 334 335 334 334 333 334 335 337 337 338 341 341 340 343 347 353 359 362 363 363 362 359 353 351 350 347 346 344 338 334 335 336 337 339 339 339 337 336 337
322 326 328 327 324 319 321 328 331 332 331 330 330 330 331 333 334 333 332 333 334 334 333 334 334 334 333 333 334 335 336 337 338 338 340 341 340 342 346 351 356 359 361 361 361 359 354 351 350 347 345 341 336 334 335 336 337 337 336 337 337 338 338
323 325 326 323 320 322 327 332 333 332 331 331 331 331 332 332 333 334 335 334 333 334 334 334 333 332 333 333 333 335 334 337 339 338 339 342 344 345 347 352 355 358 360 359 359 358 355 351 349 346 342 338 335 334 335 337 337 336 335 335 336 337 337
324 323 323 323 325 331 334 336 334 333 334 333 331 330 332 333 333 333 335 334 334 335 334 333 332 332 333 333 333 333 334 337 340 339 339 342 344 346 350 353 354 358 359 358 357 356 353 350 346 343 340 337 336 336 337 337 337 337 336 335 335 336 336
325 321 320 325 329 331 334 336 335 334 334 333 331 329 331 334 334 333 335 334 334 334 333 332 332 332 333 333 332 332 334 337 340 340 339 341 344 347 350 352 355 356 357 356 355 354 351 347 343 341 338 337 336 337 337 335 336 337 337 336 334 335 336
327 323 320 324 325 324 329 335 336 334 333 333 334 331 330 333 334 332 334 334 333 334 333 331 332 334 333 332 332 332 334 337 339 340 340 341 344 348 350 351 354 355 355 356 355 353 349 345 341 339 337 336 336 336 335 335 336 336 336 335 334 335 337
325 323 321 322 322 323 330 335 335 333 333 333 334 329 328 332 334 332 332 333 333 333 332 331 333 334 332 330 332 334 334 334 336 339 341 341 345 348 350 351 353 355 356 356 354 350 346 341 339 338 336 336 336 334 334 334 334 334 335 334 333 334 336
325 324 322 323 324 326 331 333 332 332 334 335 332 325 325 330 333 332 331 333 333 332 331 332 333 333 332 331 332 334 334 334 336 341 344 344 346 349 350 352 354 356 356 355 351 346 342 339 338 337 336 335 334 334 335 334 333 333 333 333 333 334 334
323 323 322 322 325 331 333 332 332 334 334 331 326 323 328 332 332 332 332 332 332 330 332 332 332 333 333 331 332 333 333 334 339 344 346 346 347 348 348 352 356 356 356 354 349 343 341 339 337 336 334 333 333 334 334 334 334 334 332 331 332 333 333
323 323 322 320 324 333 335 332 333 333 329 328 327 331 335 333 331 332 332 331 332 331 331 331 332 333 332 331 333 333 331 336 342 344 345 346 345 345 348 353 355 355 354 351 346 342 340 338 336 335 334 334 335 335 334 334 335 334 332 330 330 331 332
324 322 321 319 323 333 335 331 333 332 331 333 337 337 335 332 332 332 332 331 332 331 331 331 332 332 331 332 333 333 333 339 342 344 346 346 344 346 350 352 351 350 349 346 342 340 339 337 336 334 333 335 335 334 333 334 333 333 333 331 330 332 332
324 320 322 325 329 334 334 332 334 334 333 336 338 336 334 333 333 332 332 332 332 332 333 334 333 333 332 332 334 335 337 339 342 345 347 345 343 345 346 346 346 345 345 344 340 337 337 335 333 333 334 336 335 331 329 330 330 332 334 333 332 331 332
329 327 331 335 335 334 333 333 334 334 333 334 334 334 334 334 334 333 332 331 332 332 333 334 335 335 333 333 336 337 337 339 343 346 346 344 343 342 339 340 343 342 342 342 337 334 336 336 335 337 337 336 337 337 336 337 338 338 339 337 334 332 334
334 333 334 334 333 333 332 332 332 332 332 332 333 335 336 336 335 335 334 334 334 334 334 335 336 335 332 335 338 336 336 339 342 345 345 343 341 338 336 340 342 340 339 340 337 338 342 342 340 338 333 333 340 343 342 343 342 339 338 340 340 338 338
331 331 332 334 333 332 332 332 332 331 330 331 333 334 335 336 336 336 337 338 338 337 336 336 337 336 333 335 337 336 337 340 343 344 345 343 341 341 342 344 344 340 338 338 338 340 341 339 338 336 332 334 341 341 340 341 340 337 338 341 341 338 336
332 331 332 333 332 331 332 332 330 329 329 330 332 333 334 335 334 334 336 336 337 337 335 335 337 337 334 335 338 340 342 343 344 346 347 347 346 345 343 341 341 340 339 338 338 340 340 340 340 338 334 334 338 338 337 339 339 340 340 339 337 334 333
331 332 333 334 331 331 331 330 329 328 329 330 331 331 332 333 333 334 335 334 335 336 335 335 337 337 336 339 339 339 340 342 342 345 347 346 343 339 335 333 333 334 334 335 338 341 340 337 335 332 329 329 330 332 335 336 336 338 338 336 335 333 332
330 332 333 332 331 332 332 330 328 328 329 330 331 330 330 331 332 334 334 334 336 337 336 337 339 337 338 339 336 335 338 340 340 342 343 339 334 331 328 328 328 328 328 329 331 332 330 327 325 325 326 326 324 325 330 334 335 337 336 334 332 331 329
330 330 329 329 330 331 331 329 327 328 330 331 330 328 328 329 329 332 334 335 338 339 337 338 339 338 338 337 334 335 338 336 336 338 337 332 330 330 329 329 328 326 325 325 325 324 323 324 325 326 328 329 327 326 330 333 334 336 336 333 330 328 327
328 326 325 326 327 328 327 326 326 328 329 330 329 327 327 328 328 329 332 335 338 339 337 337 337 337 337 335 334 336 337 335 333 334 332 330 329 330 334 335 329 324 323 324 323 322 322 324 326 327 329 331 331 329 331 333 333 334 335 333 330 329 328
324 322 321 323 323 324 325 325 325 326 328 328 327 327 327 327 327 328 330 334 337 338 336 335 335 335 335 333 333 335 337 335 331 329 330 332 330 329 333 335 329 321 321 322 322 324 326 328 330 330 329 330 331 330 330 331 332 333 333 333 332 331 330
Wind_Speed
18 18 15 12 11 8 6 8 10 7 6 7 7 7 6 6 7 4 5 6 6 5 6 10 10 7 8 7 7 10 13 15 18 20 23 27 27 27 28 30 32 32 30 29 27 25 25 26 25 23 22 22 20 16 13 12 11 10 8 7 6 5 5
17 20 17 13 13 12 6 7 9 6 3 5 6 5 5 6 7 6 6 8 6 5 5 7 10 7 7 8 8 9 10 14 18 20 21 24 25 25 26 27 29 32 30 29 29 27 27 28 27 24 24 24 22 17 14 13 12 11 9 8 6 6 5
15 17 16 12 13 15 9 4 7 8 5 5 5 5 5 6 6 6 7 8 7 6 4 7 10 7 5 6 6 6 8 12 15 18 20 23 26 27 27 26 25 29 32 32 31 29 28 28 27 27 27 25 21 17 15 14 13 12 10 8 7 6 6
13 12 11 10 11 13 10 7 5 6 5 5 6 5 5 6 6 6 6 5 4 4 4 8 8 4 2 4 5 5 7 10 13 16 18 21 25 25 28 29 25 26 31 34 34 31 30 30 28 28 28 24 21 18 16 15 14 13 10 9 8 7 6
14 9 10 11 11 12 10 8 7 8 6 5 4 6 7 7 5 5 5 5 2 3 4 4 4 3 2 4 4 5 6 8 9 13 15 19 22 24 28 29 26 26 28 31 33 31 30 30 30 30 28 24 21 19 17 16 14 13 11 10 9 8 7
11 10 13 15 16 14 12 10 10 10 8 6 5 7 8 7 6 5 5 6 2 7 7 5 5 2 2 2 3 4 6 7 8 10 13 17 20 24 27 28 27 28 29 30 32 31 30 31 32 31 28 25 22 20 18 16 14 13 11 10 10 9 7
10 13 16 19 20 17 13 12 12 11 10 8 7 7 7 6 7 7 6 7 2 7 6 4 6 2 3 3 4 4 4 5 7 9 11 14 19 22 25 28 29 30 32 32 31 31 32 33 32 30 28 24 22 21 19 16 15 13 10 10 11 10 9
10 13 15 18 18 15 12 11 12 12 11 10 9 8 7 5 6 6 5 7 3 5 5 5 6 1 3 2 3 4 4 5 5 7 9 13 19 22 25 29 30 29 30 30 30 33 35 33 31 29 27 24 22 21 19 17 15 13 11 10 10 10 9
10 10 10 13 14 12 11 10 12 14 14 14 12 10 6 4 7 8 7 7 3 5 6 6 3 2 3 2 4 5 4 5 7 8 9 12 17 22 26 29 28 28 28 29 33 37 37 33 31 29 27 25 23 22 19 16 14 13 12 10 9 10 9
11 11 9 9 10 10 10 12 16 17 17 17 13 9 8 6 8 11 10 7 3 8 7 5 3 2 1 3 5 5 4 6 7 8 9 11 15 20 25 30 31 31 31 33 36 38 37 34 32 30 28 26 24 22 19 16 14 13 12 11 10 10 9
13 11 10 10 11 12 13 15 19 18 18 18 14 10 10 7 7 10 9 7 5 6 7 4 3 3 2 4 7 8 7 8 8 8 9 11 14 18 21 26 30 32 33 36 37 38 36 34 32 31 30 27 24 22 20 16 13 12 12 12 11 11 9
18 15 13 15 18 18 17 18 21 21 20 19 16 14 13 9 9 10 7 6 11 12 10 9 7 5 4 4 7 10 10 9 9 9 10 12 16 18 20 23 26 29 32 34 35 36 35 34 33 31 29 27 24 22 20 16 13 13 13 13 13 12 10
19 19 19 19 18 17 17 18 21 22 21 21 18 16 16 13 11 9 3 4 11 13 10 10 10 8 8 8 9 11 11 11 12 12 13 15 18 20 20 22 25 28 29 31 33 34 34 34 32 31 28 25 23 22 18 15 15 15 14 13 13 12 11
20 22 24 23 18 15 16 19 20 20 20 21 19 18 19 18 16 13 9 9 13 11 8 12 13 10 9 11 11 12 13 14 15 15 15 17 19 21 21 22 25 27 29 31 32 33 34 33 32 31 28 25 24 21 16 15 17 16 14 15 14 12 11
16 20 23 21 17 16 19 21 21 20 19 20 20 18 18 18 16 14 13 13 13 8 6 12 12 6 4 8 11 13 15 15 16 17 16 16 18 21 22 24 26 28 29 30 32 34 35 35 33 31 28 27 27 23 18 17 18 16 15 15 14 12 11
10 16 17 15 15 19 22 22 21 21 20 19 17 15 16 16 13 10 9 10 9 6 7 10 8 4 7 10 11 12 13 14 16 15 13 13 15 17 20 23 26 29 31 32 33 35 36 36 34 31 29 29 27 23 19 19 18 15 15 15 13 12 12
10 16 16 14 16 18 17 16 19 21 20 18 17 16 15 12 8 7 7 7 7 5 5 6 6 7 11 11 11 11 12 13 14 13 13 14 15 16 18 21 24 28 30 32 34 36 36 37 35 32 31 29 24 21 20 19 17 15 16 14 12 12 13
10 15 15 14 15 14 11 11 15 18 17 17 17 15 12 6 3 6 9 8 7 6 4 5 8 10 11 11 12 12 13 13 14 15 15 15 14 15 16 19 22 25 27 29 31 34 36 36 35 32 30 27 23 20 19 18 18 17 16 15 13 14 14
10 11 11 12 13 12 10 9 10 10 12 15 16 14 12 9 8 10 11 10 9 7 6 7 10 10 10 12 13 13 13 13 13 14 14 13 12 13 15 18 20 23 24 26 28 31 33 34 32 30 28 24 20 18 18 18 19 19 17 15 15 15 16
9 8 10 10 7 5 6 6 7 8 10 12 13 12 12 12 11 11 11 10 9 8 8 10 9 9 9 12 15 15 14 12 11 12 11 10 11 12 14 17 19 22 23 24 27 30 32 31 30 27 25 22 19 18 18 19 19 18 17 16 16 17 18
8 9 11 9 5 5 6 6 7 8 8 9 9 9 10 10 10 9 9 9 8 7 9 9 6 5 7 11 14 15 13 10 10 10 8 8 9 11 12 15 18 20 21 22 26 29 30 29 27 25 23 21 19 18 18 18 18 18 18 18 18 19 20
8 10 11 10 9 9 8 8 7 7 9 8 5 6 7 8 9 10 10 9 7 5 8 8 4 3 7 9 10 9 9 8 7 7 6 6 7 9 12 14 16 18 19 22 28 30 30 28 26 24 22 20 19 19 18 18 19 19 20 20 20 20 21
9 10 10 9 10 9 8 9 10 13 14 9 4 5 7 7 10 14 13 10 7 6 7 6 3 3 7 7 3 2 5 6 6 7 6 6 7 9 12 14 16 18 20 24 28 29 29 28 25 23 21 19 19 19 18 18 19 20 21 21 21 20 20
9 10 9 8 8 6 5 8 9 10 12 8 6 7 6 3 5 7 6 5 5 5 6 5 4 5 8 7 5 2 5 6 5 7 7 8 9 11 13 14 16 19 22 25 28 29 29 28 24 21 20 18 18 19 19 19 19 20 20 20 20 19 19
11 11 10 9 7 2 1 6 7 7 9 8 7 6 2 2 1 1 2 4 5 4 6 6 6 7 10 10 9 8 9 7 7 8 9 10 11 11 13 16 18 21 23 25 27 27 28 27 23 19 18 17 18 19 20 20 21 20 18 17 17 20 20
10 10 10 11 8 1 1 5 8 8 8 7 4 2 2 0 2 1 3 6 7 6 8 9 8 11 13 11 10 12 11 8 9 10 11 11 11 12 14 17 20 22 22 24 26 25 24 23 20 16 16 17 18 19 21 23 23 22 20 17 18 21 21
9 10 11 11 6 1 3 6 6 5 5 2 2 3 2 1 3 3 3 5 7 8 11 12 12 14 16 13 12 12 10 7 8 11 12 13 13 14 16 19 21 21 22 24 25 23 20 19 17 16 17 18 18 18 20 23 25 25 23 21 20 21 21
8 8 7 4 1 3 4 3 2 2 1 2 3 2 2 2 3 5 6 7 8 10 12 14 15 16 18 16 13 11 8 7 10 11 13 14 14 15 16 18 18 19 21 23 23 20 17 16 16 16 17 18 19 21 21 22 25 27 25 22 21 21 22
3 2 1 3 4 3 3 3 2 1 2 4 3 3 4 4 5 7 9 11 11 11 13 15 14 17 19 17 13 12 11 12 12 12 13 14 14 14 15 15 16 16 17 19 19 16 12 12 13 14 15 16 20 23 22 20 21 21 20 20 21 23 23
2 3 3 3 3 2 2 3 3 3 4 5 5 6 6 6 7 8 11 13 13 14 15 15 15 17 18 16 15 16 15 13 12 11 12 13 12 12 12 13 15 15 14 15 16 12 10 10 11 13 15 17 18 18 16 15 16 16 16 17 19 21 22
2 2 3 2 2 1 0 2 4 6 8 8 8 8 8 8 9 10 11 12 14 15 16 16 16 17 18 17 16 17 15 13 12 11 11 12 11 11 10 11 13 13 13 12 12 10 10 12 14 15 16 16 15 13 10 9 11 14 15 15 16 18 21
4 4 3 2 1 2 2 3 5 7 9 10 10 9 9 9 10 11 11 12 15 16 17 17 17 17 18 16 14 12 10 11 11 10 11 14 14 13 12 11 11 11 11 10 8 6 7 8 9 10 11 9 8 8 8 7 7 8 9 11 12 13 13
5 3 2 0 3 6 6 6 8 9 10 10 11 11 10 10 11 11 12 14 14 15 16 16 13 12 13 10 9 7 7 10 11 9 10 14 14 13 12 11 9 9 9 7 6 6 7 7 7 8 9 9 8 7 7 7 6 7 8 9 9 9 8
5 1 4 4 3 4 2 7 9 10 10 10 10 11 11 12 13 13 13 14 12 12 13 10 7 7 9 9 9 9 10 11 10 9 10 13 11 8 7 7 6 6 6 4 4 5 7 8 8 9 10 11 12 10 8 6 5 7 10 10 9 9 8
1 6 8 7 6 5 5 9 11 10 10 9 9 11 12 13 15 14 14 13 10 7 6 6 5 6 9 9 8 10 14 14 10 7 7 8 6 4 5 6 7 6 6 6 7 7 8 8 9 8 7 9 10 9 8 7 6 7 10 11 9 9 10
3 7 9 8 8 9 11 13 12 10 8 8 10 12 14 15 16 15 15 13 9 5 2 3 5 6 8 9 7 8 13 16 14 10 5 4 7 8 7 7 8 7 6 5 6 8 9 8 8 6 5 5 6 6 7 7 6 7 9 10 10 11 10
7 8 9 7 7 10 13 15 13 10 7 9 12 14 15 16 17 17 16 13 9 7 5 6 7 6 6 9 8 8 10 13 14 14 12 10 12 13 10 8 7 7 6 6 7 7 6 4 4 4 4 5 6 6 6 6 6 8 9 10 10 11 10
Wind_Direction
190 207 215 195 206 214 183 204 227 223 221 240 249 245 243 259 273 248 218 236 233 243 235 194 184 195 203 209 226 226 218 216 224 222 205 199 202 203 198 195 195 195 193 190 191 192 195 196 193 188 188 196 204 208 205 194 192 197 201 208 212 214 231
191 206 216 199 217 234 199 192 217 215 225 267 277 264 222 221 250 250 238 250 239 235 247 174 157 186 209 195 204 218 216 213 221 224 211 201 202 205 203 199 194 191 191 193 194 195 198 197 196 195 195 199 205 206 202 195 192 196 201 207 208 214 231
187 199 214 201 214 237 249 241 215 210 211 222 237 251 240 222 237 246 229 234 248 250 219 156 156 188 213 203 201 211 222 218 217 224 220 206 203 205 204 199 193 189 191 194 193 193 200 204 201 199 198 197 198 197 193 191 192 196 201 203 205 218 234
180 192 215 207 198 215 247 279 240 221 225 219 205 206 242 250 239 251 248 229 244 263 201 165 152 150 197 237 213 201 234 230 214 222 225 211 204 200 195 197 198 191 188 190 189 191 202 207 199 196 198 195 190 189 189 190 193 196 200 203 210 223 232
182 195 207 213 205 193 211 240 229 215 217 236 228 196 219 250 252 257 267 255 250 68 92 116 100 107 202 249 236 201 226 241 227 223 222 214 206 193 187 195 197 187 185 188 187 191 202 204 195 194 200 197 189 188 189 190 194 198 201 206 210 216 224
194 209 201 210 220 203 192 209 226 227 218 220 230 217 216 235 254 256 256 258 229 97 97 109 105 119 206 231 261 224 210 232 242 233 222 212 207 199 191 189 187 183 185 189 190 197 207 204 196 194 197 194 189 189 190 190 194 198 203 208 209 215 224
213 221 204 205 222 227 213 206 216 228 225 217 224 232 225 223 241 246 248 258 218 104 105 116 105 55 346 340 296 279 246 237 237 237 230 209 203 204 195 186 185 187 189 191 192 198 204 199 193 192 191 189 189 190 190 190 193 196 200 206 209 219 231
213 223 214 202 211 233 237 217 210 219 222 215 218 237 243 233 236 238 241 246 212 104 97 89 87 39 305 255 221 243 274 275 253 241 236 210 197 199 197 192 190 191 195 199 197 196 198 194 189 189 188 188 189 190 190 192 194 195 199 202 207 219 230
203 210 220 201 196 218 238 233 222 224 228 221 213 219 229 225 226 232 244 244 205 98 91 87 80 297 301 266 200 196 228 272 277 257 236 214 200 198 197 195 193 193 197 201 196 193 193 190 186 188 188 188 188 187 189 194 196 197 199 203 207 215 224
210 201 210 207 203 211 224 235 233 227 230 233 228 221 213 207 220 233 250 255 167 122 130 143 170 209 298 287 255 238 223 236 259 260 241 222 210 204 199 194 194 197 198 196 192 190 189 186 185 186 186 186 185 185 188 193 195 196 198 202 208 214 222
241 227 212 209 218 221 215 224 234 234 232 232 235 240 232 220 226 233 243 263 247 199 202 219 225 215 224 258 266 268 257 240 240 245 243 234 222 215 209 201 197 194 192 190 188 187 186 184 183 184 184 183 183 185 188 190 193 197 200 205 211 216 222
248 253 233 215 218 225 220 215 223 232 234 232 231 238 239 234 240 238 225 243 255 254 258 272 285 291 288 276 267 267 265 260 251 234 224 234 237 225 213 207 201 193 188 187 186 184 183 181 180 181 181 182 185 186 185 186 194 203 206 209 215 221 225
238 250 247 236 229 228 229 224 223 225 228 231 232 236 237 235 242 245 182 190 250 260 268 273 285 299 297 285 274 272 272 268 263 246 218 215 230 228 214 206 202 196 189 186 184 182 180 178 178 178 180 183 185 184 184 189 198 204 207 210 217 222 225
226 233 239 242 241 236 234 234 232 230 228 226 227 233 238 237 241 238 209 212 245 258 267 275 283 291 290 286 280 274 273 270 265 257 233 216 222 226 218 209 203 197 191 187 184 182 180 179 178 179 181 182 182 183 192 201 201 203 207 213 225 233 230
231 230 231 233 239 242 241 239 237 236 235 232 228 231 236 239 243 238 224 228 243 251 264 272 276 271 249 263 267 266 271 272 265 259 250 234 227 224 218 209 202 197 193 189 186 184 184 183 181 181 180 181 186 194 202 202 200 203 207 213 231 246 237
245 247 243 236 241 246 245 245 243 239 238 240 240 236 236 242 246 234 221 234 249 256 265 267 263 239 242 261 271 273 275 273 266 261 257 251 241 232 222 211 203 198 194 191 189 187 187 185 183 181 180 183 194 201 197 195 200 206 207 211 227 241 235
242 246 244 240 244 246 242 240 241 240 239 240 242 237 234 243 257 249 237 250 268 278 274 270 267 266 272 282 289 290 289 284 275 266 260 260 255 244 230 217 209 204 198 194 191 188 186 185 182 180 181 185 191 192 189 193 199 202 206 212 223 233 230
243 242 236 237 241 240 240 244 245 246 246 246 247 245 239 232 236 262 270 279 285 282 264 264 273 275 279 284 285 287 288 281 272 264 259 257 254 244 232 219 212 208 204 200 194 187 184 183 180 179 183 187 188 187 189 195 200 204 209 213 221 230 229
243 244 233 233 237 238 245 258 263 259 254 255 257 258 256 250 239 247 259 262 261 265 265 266 269 269 271 275 277 279 277 269 262 260 255 248 240 233 223 213 208 206 204 202 197 189 183 179 175 175 179 183 185 188 192 197 204 210 212 213 220 229 229
243 242 231 229 244 257 247 253 263 256 249 250 253 254 254 255 252 245 242 245 245 252 261 261 260 266 275 276 272 265 260 256 252 251 252 245 232 223 214 207 202 200 200 199 195 189 181 175 172 173 175 177 182 190 195 199 207 212 212 216 224 229 230
236 241 238 230 233 240 223 223 238 241 241 240 240 248 246 242 246 241 233 242 247 251 263 263 258 280 287 278 268 254 238 235 242 246 250 244 227 214 205 201 196 195 197 194 188 183 178 173 172 171 173 177 185 192 198 203 208 210 212 221 230 232 230
230 243 249 238 236 237 224 214 208 214 239 242 226 242 237 213 228 243 241 246 249 245 259 258 248 284 279 271 267 242 209 208 220 224 229 223 208 198 193 190 188 188 189 184 180 178 175 172 171 171 174 182 188 194 202 208 211 212 215 225 232 231 229
229 237 245 240 244 246 229 226 220 216 230 232 188 226 234 201 218 240 240 238 235 232 245 242 219 256 266 277 318 123 180 212 209 200 204 195 184 183 182 180 180 179 179 177 176 175 172 169 170 173 179 187 194 200 205 210 214 219 222 227 231 230 230
240 242 246 244 251 251 237 253 250 218 209 197 182 227 247 199 213 239 229 209 215 233 249 245 229 245 261 290 340 345 230 233 204 187 185 175 172 173 171 171 172 171 171 172 172 171 170 170 173 178 184 193 201 207 211 215 221 226 229 231 232 230 231
240 243 248 247 249 254 192 236 231 196 192 201 215 241 281 83 124 121 156 206 232 253 262 255 248 257 264 276 293 279 249 221 187 181 176 168 169 168 167 167 166 166 169 172 172 171 173 175 178 183 192 200 208 214 218 223 227 231 235 238 237 234 234
241 244 251 250 248 316 64 223 213 201 210 217 223 311 2 260 232 182 191 229 257 279 281 279 276 274 271 269 271 265 248 215 188 182 174 171 169 165 167 169 166 166 170 173 173 173 176 183 187 192 200 207 215 223 227 232 236 237 240 244 244 240 236
240 242 252 259 254 151 173 211 201 197 216 204 81 33 3 234 246 267 241 247 270 283 285 287 286 283 279 272 262 253 239 212 198 187 175 173 169 162 168 172 169 168 170 173 176 177 180 190 199 205 212 216 224 233 236 239 243 245 245 246 244 241 238
253 245 244 262 337 101 144 165 128 144 167 48 39 334 305 281 262 268 268 273 282 285 284 285 285 284 279 269 256 245 225 210 213 195 174 172 171 167 173 173 170 172 173 174 179 185 192 206 214 215 217 223 235 246 245 242 245 248 248 244 242 243 243
294 298 105 97 84 90 126 132 115 112 85 56 22 331 314 302 285 281 282 285 285 283 281 281 279 277 272 261 245 239 228 212 206 190 171 169 171 172 176 175 173 176 177 179 188 195 203 214 218 215 219 234 249 253 249 245 244 245 245 243 244 243 239
72 80 89 96 88 73 111 126 105 49 41 38 23 5 345 329 318 305 294 291 290 286 281 279 275 269 264 253 238 237 231 209 191 179 169 166 171 175 173 170 175 182 183 186 195 203 209 220 231 236 244 256 260 254 250 250 249 250 250 246 243 236 227
162 205 231 195 137 129 21 74 59 35 23 19 18 8 349 335 321 304 296 295 290 282 275 271 269 264 259 248 235 229 220 196 175 167 159 152 154 162 163 160 168 182 192 196 199 210 226 241 255 258 256 261 264 263 267 270 268 266 256 238 231 231 229
217 224 228 217 182 183 144 80 48 28 13 7 10 6 348 330 311 298 296 293 285 279 273 268 265 264 260 245 223 206 192 174 165 160 148 140 141 151 163 164 157 159 176 191 193 199 217 229 242 247 246 252 265 278 285 283 275 264 241 219 220 228 226
251 211 152 107 245 207 159 93 48 22 9 3 3 1 352 338 326 315 301 290 283 280 277 270 265 264 257 230 190 175 174 170 168 163 147 143 147 153 160 166 165 161 167 172 166 179 207 223 243 266 275 277 286 303 299 281 262 237 217 208 209 208 199
260 131 74 26 300 226 142 48 22 8 6 2 358 359 356 349 345 335 314 302 297 289 284 281 268 249 232 204 181 183 184 172 163 160 147 141 148 159 168 181 193 193 197 205 209 227 250 268 280 290 296 295 298 304 296 276 254 228 215 207 205 210 218
326 60 51 20 351 334 351 360 355 354 358 354 349 354 354 348 345 339 328 319 307 286 284 294 275 232 206 198 190 174 167 161 157 157 145 131 141 186 211 205 204 210 219 228 243 262 276 285 287 294 306 308 305 300 285 270 258 233 217 210 218 235 249
357 42 37 17 351 333 326 331 335 340 350 350 345 345 345 342 339 336 333 326 306 273 243 257 249 217 186 192 193 162 160 171 180 187 192 189 194 200 191 177 189 207 215 219 246 266 271 274 282 293 307 308 303 298 286 273 257 238 226 225 241 257 264
333 358 4 351 331 317 311 312 312 312 330 344 337 332 333 333 331 328 326 319 298 264 232 218 222 221 204 202 200 178 171 182 193 201 203 195 191 191 181 168 184 213 228 235 250 257 259 269 284 293 300 300 292 285 277 267 256 249 243 242 252 263 265